Location: Recife
(8.0585°S, 34.8848°W)
Time: 11:11:36
(UTC-03:00)

Vanguard 2 Rocket - Pass Details

Date: 23 April 2026
Orbit: 553 x 3286 km, 32.9° (Epoch: 7 May)

Event Time Altitude Azimuth Distance (km) Brightness Sun altitude
Rises 00:47:09 0° 327° (NNW) 2,798 - -67.6°
Reaches altitude 10° 00:49:46 10° 343° (NNW) 1,821 - -67.0°
Maximum altitude 00:52:56 23° 37° (NE) 1,205 - -66.2°
Drops below altitude 10° 00:56:20 10° 91° (E) 1,970 - -65.4°
Sets 00:59:18 0° 106° (ESE) 3,097 - -64.7°
